Weather in Urik

Russia / Irkutsk Oblast     52°27′48″N   104°14′15″E
temp.,
°C
wind,
m/s
gust,
m/s
humid.,
%
clouds,
%
prec.,
mm/h
press.,
hPa
HPBL,
m
13 april, tue
tue1323:00−1w36956 0.1 1027141
02:00−2w229510 0.1 102633
05:00−2sse229478 0.0 102420
08:000sse2377100 0.0 1022210
11:00+5s3450100 0.0 1018626
14:00+9wnw4845100 0.0 10151518
17:00+7nnw2259100 0.1 1014820
20:00+2nnw31194100 2.4 1017617
14 april, wed
wed1423:00+2nw61175100 0.1 1020728
02:000nw51079100 0.1 1021761
05:00−1nw41087100 0.0 1021525
08:000nw5877100 0.0 1022736
11:00+2nw6855100 0.1 10221536
14:00+5nw7942100 0.6 10202281
17:00+5nnw6114046 0.3 10182324
20:00+2nw3654100 0.3 1019159
15 april, thu
thu1523:00+1w3668100 0.0 1018176
02:00−1ssw367798 0.0 1016153
05:00−1ssw4870100 0.0 1013264
08:00+1sw2364100 0.0 1012184
11:00+2wnw81487100 0.6 10131156
14:00+5nw101739100 0.7 10162868
17:00+5nnw9164032 0.0 10182435
20:00+1nnw4955100 0.0 1021315
16 april, fri
fri1623:00−1wnw3768100 0.0 1023187
02:00−1w257072 0.0 1023133
05:00−2ssw227736 0.0 102220
08:00+1s3466100 0.0 1021212
11:00+7s453934 0.0 1018863
14:00+12s442893 0.0 10151443
17:00+14sse23265 0.0 10131497
20:00+8se47545 0.0 101496
17 april, sat
sat1723:00+4sse34655 0.0 101468
02:00+3se22665 0.0 101229
05:00+2se22685 0.0 101111
08:00+4sse126272 0.0 1011134
11:00+11s114556 0.0 1009412
14:00+16sse12315 0.0 1006879
17:00+17s342499 0.0 10031590
20:00+12sse474129 0.0 1003109